Flight Track Log - Related Links

Times and Time Zones

All times are in EDT time to prevent confusion due to time zone crossing. See the AWI3970 flight status page for this flight to view local times or setup timezone preferences in your user account.

Time Position Orientation Groundspeed Altitude Reporting Facility
EDT Latitude Longitude Course Direction KTS MPH feet Rate Location/Type
Sun 01:19:05 PM 39.8667 -75.2667 218° Southwest 161 185 900  Level Philadelphia TRACON
Sun 01:20:53 PM 39.7833 -75.3500 218° Southwest 257 296 5,500 2,724 Climbing Philadelphia TRACON
Sun 01:21:48 PM 39.7167 -75.3333 169° South 305 351 8,300 2,678 Climbing Philadelphia TRACON
Sun 01:22:54 PM 39.7167 -75.2000 90° East 333 383 10,900 1,337 Climbing Philadelphia TRACON
Sun 01:24:34 PM 39.7550 -74.9753 77° East 392 451 12,000 450 Climbing New York Center
Sun 01:25:34 PM 39.7742 -74.8494 79° East 400 460 12,100  Climbing New York Center
Sun 01:26:34 PM 39.7978 -74.7075 78° East 405 466 12,000 450 Descending New York Center
Sun 01:27:34 PM 39.8086 -74.5675 84° East 405 466 13,000 1,150 Climbing New York Center
Sun 01:28:34 PM 39.8256 -74.4281 81° East 394 453 14,300 1,850 Climbing New York Center
Sun 01:29:34 PM 39.8853 -74.3175 55° Northeast 363 418 16,700 1,400 Climbing New York Center
Sun 01:30:34 PM 39.9600 -74.1831 54° Northeast 388 447 17,100 150 Climbing New York Center
Sun 01:31:34 PM 40.0325 -74.0594 53° Northeast 424 488 17,000 -50 Descending New York Center
Sun 01:32:34 PM 40.0958 -73.9456 54° Northeast 424 488 17,000 -40 Level New York Center
Sun 01:34:05 PM 40.2039 -73.7469 54° Northeast 434 499 16,900  Descending Boston Center
Sun 01:35:04 PM 40.2667 -73.6350 54° Northeast 433 498 17,000  Climbing Boston Center
Sun 01:36:08 PM 40.3528 -73.4819 54° Northeast 436 502 16,900 -48 Descending Boston Center
Sun 01:37:08 PM 40.4539 -73.4208 25° Northeast 404 465 16,900 -248 Level Boston Center
Sun 01:38:09 PM 40.5625 -73.3867 13° North 398 458 16,400 -836 Descending Boston Center
Sun 01:39:10 PM 40.6681 -73.3500 15° North 392 451 15,200 -757 Descending Boston Center
Sun 01:40:00 PM 40.7500 -73.3167 17° North 333 383 15,000 -545 Descending New York TRACON
Sun 01:41:00 PM 40.8333 -73.2500 31° Northeast 360 414 14,200 -1,200 Descending New York TRACON
Sun 01:42:00 PM 40.8667 -73.1500 66° East 383 441 12,600 -1,600 Descending New York TRACON
Sun 01:43:00 PM 40.9167 -73.0333 60° Northeast 335 386 11,000 -1,810 Descending New York TRACON
Sun 01:44:06 PM 41.0000 -73.0000 17° North 285 328 8,800 -1,857 Descending New York TRACON
Sun 01:45:06 PM 41.0333 -73.0833 298° West 234 269 7,100 -1,850 Descending New York TRACON
Sun 01:46:06 PM 41.0500 -73.1500 288° West 241 277 5,100 -1,000 Descending New York TRACON
Sun 01:47:06 PM 41.0833 -73.2333 298° West 229 264 5,100 -590 Level New York TRACON
Sun 01:48:08 PM 41.1167 -73.3167 298° West 223 257 3,900 -1,263 Descending New York TRACON
Sun 01:49:00 PM 41.0833 -73.3667 229° Southwest 215 247 2,700 -966 Descending New York TRACON
Sun 01:50:06 PM 41.0500 -73.4333 236° Southwest 196 226 2,000 -333 Descending New York TRACON
Sun 01:51:06 PM 41.0167 -73.5000 236° Southwest 189 217 2,000  Level New York TRACON
Sun 01:52:06 PM 41.0000 -73.5667 252° West 202 232 2,000  Level New York TRACON
Sun 01:53:06 PM 40.9833 -73.6167 246° West 172 198 2,000 -150 Level New York TRACON
Sun 01:54:06 PM 41.0167 -73.6667 311° West 138 159 1,700 -550 Descending New York TRACON
Sun 01:55:06 PM 41.0500 -73.6833 339° North 127 146 900 -800 Descending New York TRACON

Login

Don't have an account? Register now (free) for customized features, flight alerts, and more!